Other Public Products
Issued by NWS Charleston, SC

Current Version | Previous Version | Graphics & Text | Print | Product List | Glossary On
Versions: 1 2 3 4 5 6 7 8 9 10 11 12 13 14 15 16 17 18 19 20 21 22 23 24 25 26 27 28 29 30 31 32 33 34 35 36 37 38 39 40 41 42 43 44 45 46 47 48 49 50
000
FPUS82 KCHS 170427
OPUCHS

TEST...KCHS/KSAV Gateway Observations...TEST
National Weather Service Charleston SC
1100 PM EST THU NOV 16 2017

NOTE: "fair" indicates few or no clouds below 12,000 feet with no
significant weather and/or obstructions to visibility.

SCZ050-WAZ558-NCZ071-TXZ119-213-PAZ071-DCZ001-FLZ074-172-MI076-
NYZ176-178-MAZ016-IL014-TNZ027-NJZ106-GAZ044-MD014-170500-

...Gateway Observations for Charleston International...

CITY           SKY/WX    TMP DP  RH WIND       PRES   REMARKS
Chas Airport   PTCLDY    48  47  96 CALM      30.09S
Seattle        CLOUDY    43  39  86 S14       29.68S
Charlotte      PTCLDY    47  33  58 N8        30.11R
Dallas DFW     CLOUDY    71  65  81 S15       29.98S
Dallas Love    MOCLDY    71  65  81 S16G23    29.99S
Philladelphia  CLEAR     45  30  55 W14       29.99F
Wash National  CLOUDY    47  30  51 NW9G21    30.11S
Baltimore      MOCLDY    44  31  60 W9        30.07S
Miami          PTCLDY    71  68  90 N8        30.01S
Detroit        CLOUDY    38  28  67 NW6       30.25S WCI  33
Newark         PTCLDY    44  35  70 W8        29.91R
Laguardia      PTCLDY    46  35  65 NW18G26   29.89S
J F K          MOCLDY    46  35  65 NW17      29.91R
Boston Logan   PTCLDY    44  38  79 W20G25    29.69F
Ft. Lauderdale MOCLDY    69  69 100 N7        30.01S
Chicago O`Hare CLOUDY    37  29  72 SE7       30.23F WCI  32
Chicago Midway CLOUDY    38  31  76 S3        30.24F
Houston Bush   PTCLDY    69  68  96 SE8       30.07S
Houston Hobby  MOCLDY    70  68  93 SE6       30.06S
Nashville      CLEAR     41  35  79 N6        30.22R
Atlanta        PTCLDY    48  38  68 NW8       30.12S

$$

GAZ044-118-TXZ119-213-NCZ071-DCZ001-MDZ014-506-PAZ021-071-NJZ106-
NYZ176-178-MAZ106-OHZ011-021-055-MIZ076-KYZ091-ILZ014-INZ047-
MNZ060-ONZ431-170500-

...Gateway Observations for Savannah International...

CITY           SKY/WX    TMP DP  RH WIND       PRES   REMARKS
Savannah Arpt  CLEAR     49  48  97 CALM      30.10F
Atlanta        PTCLDY    48  38  68 NW8       30.12S
Charlotte      PTCLDY    47  33  58 N8        30.11R
Dallas DFW     CLOUDY    71  65  81 S15       29.98S
Houston Bush   PTCLDY    69  68  96 SE8       30.07S
Wash National  CLOUDY    47  30  51 NW9G21    30.11S
Wash Dulles    CLOUDY    44  31  60 W13       30.12R
Baltimore      MOCLDY    44  31  60 W9        30.07S
Philadelphia   CLEAR     45  30  55 W14       29.99F
Newark         PTCLDY    44  35  70 W8        29.91R
Laguardia      PTCLDY    46  35  65 NW18G26   29.89S
J F K          MOCLDY    46  35  65 NW17      29.91R
Boston         PTCLDY    44  38  79 W20G25    29.69F
Pittsburg      CLOUDY    38  30  73 W8        30.18R WCI  32
Akron          CLOUDY    38  29  70 W8        30.21R WCI  32
Cleveland      CLOUDY    41  31  67 N9        30.25R
Cincinnati     CLOUDY    37  30  75 E9        30.26S WCI  30
Columbus       CLOUDY    38  33  80 N5        30.24F WCI  35
Detroit        CLOUDY    38  28  67 NW6       30.25S WCI  33
Chicago O`Hare CLOUDY    37  29  72 SE7       30.23F WCI  32
Minneapolis    CLOUDY    33  28  81 SE14      29.98F WCI  23
Indianapolis   CLOUDY    33  28  81 E5        30.26F WCI  29
Toronto Canada CLOUDY    32  27  80 NW21      30.12R WCI  20

$$




USA.gov is the U.S. government's official web portal to all federal, state and local government web resources and services.